Flag for Germany Weather past 2 weeks in Hannover, Lower Saxony, Germany

Now
73 °F

Passing clouds.


Feels Like: 77 °F
Forecast: 56 / 73 °F
Wind: 14 mph from East

Location: Hannover

Current Time: Sep 17, 2014 at 3:16:02 PM

Latest Report: Sep 17, 2014 at 2:20 PM


Visibility: N/A

Pressure: 29.95 "Hg

Humidity: 57%

Dew point: 57 °F

Location of HannoverLocation

Historic Weather in Hannover — Graph

°F

Hannover temperature yesterday

Maximum temperature yesterday: 75 °F (at 3:20 PM)
Minimum temperature yesterday: 55 °F (at 4:50 AM)
Average temperature yesterday: 64 °F

Past Weeks' High & Low Weather Summary

 TemperatureHumidityPressure
High77 °F (Sep 5, 3:50 PM)100% (Sep 2, 9:20 PM)30.30 "Hg (Sep 2, 9:20 PM)
Low46 °F (Sep 3, 5:50 AM)50% (Sep 12, 3:20 PM)29.86 "Hg (Sep 6, 3:20 PM)
Average61 °F86%30.08 "Hg
* Reported Sep 2 2:20 PM — Sep 17 2:20 PM, Hannover, Weather by CustomWeather, © 2014

Note: Actual official high and low records may vary slightly from our data, if they occured in-between our weather recording intervals... More about our weather records

Advertising

Hannover weather history for previous 24 hours

 ConditionsComfort  
Time TempWeatherWind HumidityBarometerVisibility
2:20 PM
Sep 17
73 °FPassing clouds.14 mph57%29.95 "HgN/A
1:50 PM73 °FSunny.16 mph61%29.98 "Hg10 mi
1:20 PM72 °FPassing clouds.14 mph61%29.98 "HgN/A
12:50 PM72 °FSunny.13 mph61%29.98 "Hg10 mi
12:20 PM70 °FSunny.15 mph69%29.98 "Hg10 mi
11:50 AM70 °FPassing clouds.13 mph69%29.98 "HgN/A
11:20 AM68 °FPassing clouds.12 mph73%30.01 "HgN/A
10:50 AM66 °FSunny.12 mph78%30.01 "Hg10 mi
10:20 AM64 °FSunny.10 mph83%30.01 "Hg10 mi
9:50 AM63 °FSunny.10 mph83%30.01 "Hg10 mi
9:20 AM61 °FClear.7 mph88%30.01 "Hg6 mi
8:50 AM59 °FClear.8 mph94%30.01 "Hg5 mi
8:20 AM57 °FClear.6 mph100%30.01 "Hg5 mi
7:50 AM57 °FClear.6 mph94%30.01 "Hg5 mi
7:20 AM57 °FClear.5 mph94%30.01 "Hg5 mi
6:50 AM55 °FClear.5 mph100%30.01 "Hg4 mi
6:20 AM57 °FClear.5 mph94%30.01 "Hg4 mi
5:50 AM55 °FClear.5 mph100%30.01 "Hg4 mi
5:20 AM57 °FClear.3 mph94%30.01 "Hg4 mi
4:50 AM57 °FClear.5 mph94%30.01 "Hg5 mi
4:20 AM59 °FClear.3 mph94%30.01 "Hg5 mi
3:50 AM59 °FClear.7 mph94%30.01 "Hg5 mi
3:20 AM59 °FClear.8 mph94%30.01 "Hg5 mi
2:50 AM59 °FClear.8 mph94%30.01 "Hg5 mi
2:20 AM61 °FClear.8 mph94%30.01 "Hg5 mi
1:50 AM61 °FClear.8 mph94%30.01 "Hg5 mi
1:20 AM61 °FClear.8 mph94%30.01 "Hg5 mi
12:20 AM61 °FClear.8 mph94%30.01 "Hg10 mi
11:50 PM
Sep 16
61 °FClear.7 mph94%30.01 "Hg10 mi
11:20 PM63 °FClear.7 mph88%30.04 "Hg10 mi
10:50 PM63 °FClear.8 mph88%30.04 "Hg10 mi
10:20 PM64 °FClear.8 mph83%30.01 "Hg10 mi
9:50 PM64 °FClear.7 mph83%30.01 "Hg10 mi
9:20 PM64 °FClear.7 mph83%30.01 "Hg10 mi
8:50 PM64 °FClear.8 mph83%30.01 "Hg10 mi
8:20 PM66 °FSunny.8 mph78%30.01 "Hg10 mi
7:50 PM68 °FSunny.8 mph73%30.01 "Hg10 mi
7:20 PM70 °FSunny.7 mph69%30.01 "Hg10 mi
6:50 PM72 °FScattered clouds.9 mph65%30.01 "HgN/A
6:20 PM73 °FScattered clouds.12 mph61%30.01 "HgN/A
5:50 PM75 °FScattered clouds.13 mph54%30.01 "HgN/A
5:20 PM75 °FScattered clouds.10 mph54%30.01 "HgN/A
4:50 PM75 °FScattered clouds.10 mph61%30.01 "HgN/A
4:20 PM73 °FScattered clouds.14 mph69%30.01 "HgN/A
3:50 PM75 °FScattered clouds.13 mph65%30.01 "HgN/A
3:20 PM75 °FScattered clouds.13 mph65%30.01 "HgN/A
Weather by CustomWeather, © 2014

See weather overviewHow to use our weather pages